GAOFEN-5 01 (43461 NORAD) Tracking and Keplerian Element Data

This shows tracking and keplerian element data for the satellite.

Feedback or suggestion? Click here.




ElementValue
Catalog43461
NameGAOFEN-5 01
Epoch Orbit35896
Epoch Day34.85888925
Epoch Year2025
RAAN353.3134
Inclination98.3887
Eccentricity0.0002069
Argument of Perigee145.2851
Mean Anonmoly214.8484
Mean Motion14.59900031
Decay Rate1.197E-05
L11 43461U 18043A 25034.85888925 .00001197 00000+0 26002-3 0 9991
L22 43461 98.3887 353.3134 0002069 145.2851 214.8484 14.59900031358962



Live tracking and technical data element details for GAOFEN-5 01 (NORAD 43461). GAOFEN-5 01 can be tracked NOW for your location showing map with azimuth and elevation plus other details from your city location.







IsCatalogInMostPopularTable: catalog: 43461, numindb: 422
Update: records affected: 1



GetName: 43461 GAOFEN-5 01

Hit Count: updated at: Thu, 15 May 2025 09:19:31 GMT